CZ-4 DEB, 26121

Orbit data source: Space-Track

CZ-4 DEB, 26121 is space debris in SSO originally from a launch on Thu, 14 Oct 1999 UTC launched from the Taiyaun Space Center, China (TSC). Debris objects in space refer to the collection of defunct objects orbiting the Earth. Examples of debris include non-operational satellites, rocket bodies, and fragments generated from explosions, collisions, or faulty payload assembly.

Loading next visibility...
Identifier
26121, 1999-057H
Orbit
SSO
Country
Flag of CNCN / PRC
Related business
Manufacturer
Unknown
Mission
Spacecraft
Bus & Motor
Unknown
Mass
Unknown
Launch date (UTC)
1999-10-14 (26 years ago)
Launch vehicle
Unknown
Launch site
Taiyaun Space Center, China (TSC)
Object type
Payload
Rocket body
Debris
Shape & HBR
Unknown shape, 1.7 m
Radar Cross Section
Large (>1 m²)

Expand to show TLE details & history
Last TLE update: 11 hours ago

TLE from 11 hours ago
0 CZ-4 DEB
1 26121U 99057H   25289.10986156  .00017587  00000-0  80362-3 0  9994
2 26121  98.6984 342.0601 0036846 307.8171  51.9726 15.20041978389498
Epoch: 2025-10-16T02:38Z
TLE epoch observation values (Epoch: 2025-10-16T02:38:12.038Z)
Latitude
-0.00009°
Longitude
-82.36434°
Altitude
493.194 km
Speed
7.627 km/s
True Right ascension
22h 48m 14s
True Declination
0° 00' 00"
Sunlit
Object was in full shadow at epoch
Visualization orbit readout
Latitude
Unknown
Longitude
Unknown
Altitude
Unknown
Speed
Unknown
Apparent Right ascension
Unknown
Apparent Declination
Unknown
Sunlit
N/A
Visualization observer readout
Local Sidereal Time
07:52:30
Azimuth
Unknown
Elevation
Unknown
Doppler factor
Unknown
Orbital elements
Apogee altitude
528.093 km
Perigee altitude
477.386 km
Semi-major axis
6,880.877 km
Eccentricity
0.00368
Inclination
98.6984°
RAAN
342.0601°
Arg. of periapsis
307.8171°
True anomaly
52.30614°
Mean anomaly
51.9726°
Eccentric anomaly
52.13927°
Mean motion
3.80257 °/min
Orbital period
94.67 mins
BSTAR
0.00080362
Loading maneuver chart data...
Computing Atmospheric mass density...
Loading historical data...
Loading historical data...
Loading historical data...
Loading historical data...
Loading historical data...
Loading historical data...
Loading historical data...

Documentation

Showing up to 5 results
|